TimeAKST,TemperatureF,Dew PointF,Humidity,Sea Level PressureIn,VisibilityMPH,Wind Direction,Wind SpeedMPH,Gust SpeedMPH,PrecipitationIn,Events,Conditions,WindDirDegrees,DateUTC
12:53 AM,3.0,-8.0,60,29.73,7.0,North,11.5,-,N/A,Snow,Light Snow,360,2013-01-24 09:53:00
1:19 AM,3.0,-7.1,63,29.69,4.0,North,10.4,-,N/A,Snow,Light Snow,10,2013-01-24 10:19:00
1:53 AM,1.9,-8.0,63,29.75,3.0,North,6.9,-,N/A,Snow,Light Snow,360,2013-01-24 10:53:00
3:53 AM,1.0,-11.0,57,29.77,9.0,North,11.5,-,N/A,Snow,Light Snow,10,2013-01-24 12:53:00
4:53 AM,1.0,-11.9,55,29.77,9.0,North,10.4,-,N/A,Snow,Light Snow,10,2013-01-24 13:53:00
5:53 AM,-0.0,-11.9,57,29.78,9.0,North,10.4,-,N/A,Snow,Light Snow,360,2013-01-24 14:53:00
6:53 AM,-0.9,-13.0,57,29.78,10.0,North,13.8,-,N/A,,Overcast,360,2013-01-24 15:53:00
7:53 AM,-0.9,-13.0,57,29.79,10.0,North,13.8,-,N/A,,Mostly Cloudy,360,2013-01-24 16:53:00
8:53 AM,-2.0,-14.1,57,29.80,10.0,North,10.4,-,N/A,,Mostly Cloudy,360,2013-01-24 17:53:00
9:53 AM,-2.0,-14.1,57,29.81,10.0,North,12.7,-,N/A,,Mostly Cloudy,360,2013-01-24 18:53:00
10:53 AM,-2.0,-15.0,54,29.81,10.0,North,11.5,-,N/A,,Mostly Cloudy,360,2013-01-24 19:53:00
11:53 AM,-2.9,-15.0,56,29.82,10.0,North,11.5,-,N/A,,Mostly Cloudy,360,2013-01-24 20:53:00
12:53 PM,-2.9,-15.0,56,29.83,10.0,North,11.5,-,N/A,,Mostly Cloudy,360,2013-01-24 21:53:00
1:53 PM,-2.9,-15.0,56,29.84,8.0,North,10.4,-,N/A,Snow,Light Snow,10,2013-01-24 22:53:00
2:53 PM,-2.9,-15.0,56,29.84,10.0,North,9.2,-,N/A,Snow,Light Snow,360,2013-01-24 23:53:00
3:53 PM,-2.9,-15.0,56,29.85,10.0,North,10.4,-,N/A,Snow,Light Snow,360,2013-01-25 00:53:00
4:53 PM,-2.9,-16.1,54,29.86,10.0,North,10.4,-,N/A,Snow,Light Snow,360,2013-01-25 01:53:00
5:53 PM,-4.0,-16.1,56,29.87,10.0,North,10.4,-,N/A,Snow,Light Snow,360,2013-01-25 02:53:00
6:53 PM,-5.1,-17.0,57,29.87,8.0,North,10.4,-,N/A,Snow,Light Snow,360,2013-01-25 03:53:00
7:53 PM,-5.1,-18.0,54,29.88,8.0,North,8.1,-,N/A,Snow,Light Snow,360,2013-01-25 04:53:00
8:53 PM,-6.0,-17.0,59,29.88,8.0,North,8.1,-,N/A,Snow,Light Snow,360,2013-01-25 05:53:00
9:53 PM,-6.0,-17.0,59,29.90,9.0,NNW,6.9,-,N/A,Snow,Light Snow,340,2013-01-25 06:53:00
10:53 PM,-7.1,-18.0,59,29.90,9.0,North,6.9,-,N/A,Snow,Light Snow,350,2013-01-25 07:53:00
11:53 PM,-13.0,-20.9,68,29.91,10.0,Calm,Calm,-,N/A,,Mostly Cloudy,0,2013-01-25 08:53:00